Location: *
(53.4003°S, 165.3236°W)
Time: 02:47:32
(UTC+00:00)

Cosmos 1441 Rocket - Pass Details

Date: 11 December 2023
Orbit: 474 x 509 km, 81.1° (Epoch: 24 February)

Event Time Altitude Azimuth Distance (km) Brightness Sun altitude
Exits shadow 12:24:53 17° 340° (NNW) 1,367 4.7 -11.1°
Maximum altitude 12:27:47 75° 256° (WSW) 539 3.2 -11.0°
Drops below altitude 10° 12:31:37 10° 169° (S) 1,745 7.3 -10.8°
Sets 12:33:45 0° 167° (SSE) 2,630 8.8 -10.6°
